Estación de El Refugio

Ultimos registro cada 15 minutos 75
Estación Fecha / Hora Temperatura Humedad Lluvia Velocidad Dirección Radiación Presion
75 El Refugio 03-05-2026 18:45 18,2 59 0 0 288 0 1037
74 El Refugio 03-05-2026 18:30 18,2 59 0 0 288 0 1037
73 El Refugio 03-05-2026 18:15 19,2 58 0 0 288 0 1037
72 El Refugio 03-05-2026 18:00 19,9 54 0 0 288 7 1036,8
71 El Refugio 03-05-2026 17:45 21,4 47 0 0 288 19 1036,5
70 El Refugio 03-05-2026 17:30 21,4 47 0 0 288 19 1036,5
69 El Refugio 03-05-2026 17:15 22,2 44 0 0 288 19 1036,2
68 El Refugio 03-05-2026 17:00 22,8 42 0 0 288 35 1036,2
67 El Refugio 03-05-2026 16:45 24,1 38 0 0 239 65 1036,1
66 El Refugio 03-05-2026 16:30 24,1 38 0 0 239 65 1036,1
65 El Refugio 03-05-2026 16:15 24,4 38 0 0 239 123 1036
64 El Refugio 03-05-2026 16:00 25,2 38 0 0 238 109 1035,8
63 El Refugio 03-05-2026 15:45 26,2 35 0 0 284 267 1035,7
62 El Refugio 03-05-2026 15:30 26,2 35 0 0 284 267 1035,7
61 El Refugio 03-05-2026 15:15 26,3 36 0 0 284 299 1035,7
60 El Refugio 03-05-2026 15:00 26,1 37 0 0 261 462 1035,7
59 El Refugio 03-05-2026 14:45 26 37 0 0 332 339 1035,9
58 El Refugio 03-05-2026 14:30 26 37 0 0 332 339 1035,9
57 El Refugio 03-05-2026 14:15 25,9 38 0 0 255 522 1036,1
56 El Refugio 03-05-2026 14:00 25,8 38 0 0,9 317 526 1036
55 El Refugio 03-05-2026 13:45 25,4 36 0 0 264 566 1036,1
54 El Refugio 03-05-2026 13:30 25,4 36 0 0 264 566 1036,1
53 El Refugio 03-05-2026 13:15 25,1 38 0 0 257 568 1036,1
52 El Refugio 03-05-2026 13:00 24,7 38 0 0 233 575 1036,4
51 El Refugio 03-05-2026 12:45 23,7 40 0 0 233 571 1037,1
50 El Refugio 03-05-2026 12:30 23,7 40 0 0 233 571 1037,1
49 El Refugio 03-05-2026 12:15 23,1 43 0 0 342 554 1037
48 El Refugio 03-05-2026 12:00 22,7 40 0 0 342 563 1037,1
47 El Refugio 03-05-2026 11:45 21,4 46 0 0 342 536 1037,4
46 El Refugio 03-05-2026 11:30 21,4 46 0 0 342 536 1037,4
45 El Refugio 03-05-2026 11:15 20,9 50 0 0 342 519 1037,5
44 El Refugio 03-05-2026 11:00 20,2 50 0 0 348 494 1037,7
43 El Refugio 03-05-2026 10:45 19,1 55 0 0 348 446 1037,8
42 El Refugio 03-05-2026 10:30 19,1 55 0 0 348 446 1037,8
41 El Refugio 03-05-2026 10:15 18,4 58 0 0 348 413 1038,1
40 El Refugio 03-05-2026 10:00 17,7 62 0 0 348 381 1038,1
39 El Refugio 03-05-2026 09:45 15,1 69 0 0 348 311 1037,8
38 El Refugio 03-05-2026 09:30 15,1 69 0 0 348 311 1037,8
37 El Refugio 03-05-2026 09:15 14,3 71 0 0 348 274 1037,8
36 El Refugio 03-05-2026 09:00 13,1 74 0 0 348 236 1038
35 El Refugio 03-05-2026 08:45 9,2 87 0 0 348 149 1037,6
34 El Refugio 03-05-2026 08:30 9,2 87 0 0 348 149 1037,6
33 El Refugio 03-05-2026 08:15 8 90 0 0 348 100 1037,6
32 El Refugio 03-05-2026 08:00 6,9 89 0 0 348 14 1037,5
31 El Refugio 03-05-2026 07:45 6,5 89 0 0 346 5 1037
30 El Refugio 03-05-2026 07:30 6,5 89 0 0 346 5 1037
29 El Refugio 03-05-2026 07:15 6,5 88 0 0 346 0 1036,7
28 El Refugio 03-05-2026 07:00 6,7 88 0 0 346 0 1036,6
27 El Refugio 03-05-2026 06:45 6,9 88 0 0 346 0 1036,5
26 El Refugio 03-05-2026 06:30 6,9 88 0 0 346 0 1036,5
25 El Refugio 03-05-2026 06:15 7 87 0 0 346 0 1036,5
24 El Refugio 03-05-2026 06:00 7,2 87 0 0 346 0 1036,6
23 El Refugio 03-05-2026 05:45 7,9 87 0 0 346 0 1036,5
22 El Refugio 03-05-2026 05:30 7,9 87 0 0 346 0 1036,5
21 El Refugio 03-05-2026 05:15 7,8 86 0 0 346 0 1036,4
20 El Refugio 03-05-2026 05:00 7,8 86 0 0 346 0 1036,4
19 El Refugio 03-05-2026 04:45 8,3 85 0 0 346 0 1036,3
18 El Refugio 03-05-2026 04:30 8,3 85 0 0 346 0 1036,3
17 El Refugio 03-05-2026 04:15 8,6 85 0 0 346 0 1036,6
16 El Refugio 03-05-2026 04:00 8,6 87 0 0 346 0 1036,8
15 El Refugio 03-05-2026 03:45 9 85 0 0 346 0 1037,1
14 El Refugio 03-05-2026 03:30 9 85 0 0 346 0 1037,1
13 El Refugio 03-05-2026 03:15 9,1 86 0 0 346 0 1037,1
12 El Refugio 03-05-2026 03:00 8,8 86 0 0 346 0 1037,4
11 El Refugio 03-05-2026 02:45 9,2 84 0 0 346 0 1036,8
10 El Refugio 03-05-2026 02:30 9,2 84 0 0 346 0 1036,8
9 El Refugio 03-05-2026 02:15 9,3 85 0 0 346 0 1036,8
8 El Refugio 03-05-2026 02:00 9,3 84 0 0 346 0 1036,9
7 El Refugio 03-05-2026 01:45 9,4 84 0 0 346 0 1036,7
6 El Refugio 03-05-2026 01:30 9,4 84 0 0 346 0 1036,7
5 El Refugio 03-05-2026 01:15 9,3 84 0 0 346 0 1036,5
4 El Refugio 03-05-2026 01:00 9,6 83 0 0 348 0 1036,6
3 El Refugio 03-05-2026 00:30 10,1 82 0 0 249 0 1037,1
2 El Refugio 03-05-2026 00:15 10,3 82 0 0 249 0 1037,4
1 El Refugio 03-05-2026 00:00 10,3 82 0 0 249 0 1037,6